Wind_Speed
44 44 44 45 46 46 46 47 48 48 48 49 49 49 49 49 48 47 47 46 46 46 46 45 45 45 45 45 44 44 44 44 44 44 44 44 45 45 46 46 46 47 48
43 44 44 45 46 46 45 46 47 47 47 47 48 49 49 49 48 48 47 47 47 46 46 46 45 45 45 45 45 45 45 45 44 44 44 44 45 46 46 46 47 48 48
42 43 43 44 46 46 45 45 45 46 46 46 47 48 48 48 48 48 48 48 47 47 47 47 46 46 45 45 45 44 45 45 44 44 44 45 46 46 47 46 47 47 48
39 40 40 41 43 45 46 46 46 46 46 46 46 46 46 46 46 47 47 47 47 47 47 47 46 46 45 45 45 45 44 44 44 44 44 45 45 46 46 46 46 47 47
36 36 37 38 39 41 43 44 44 44 45 45 45 45 45 45 45 45 46 47 47 46 46 46 46 46 45 45 45 45 44 44 44 44 44 45 45 46 47 46 46 46 46
34 34 35 35 36 38 40 41 42 42 43 43 43 43 44 43 43 43 44 45 45 45 45 45 45 45 45 45 44 44 45 45 44 44 44 45 45 46 46 46 46 46 46
33 33 33 35 35 36 37 38 39 40 41 41 41 41 42 42 41 42 42 44 44 45 45 45 44 44 44 44 44 45 45 45 45 45 45 45 45 45 46 46 45 45 45
31 32 32 33 34 34 35 37 37 38 39 39 39 39 39 39 40 40 41 42 42 43 43 43 44 44 44 44 45 45 45 45 45 45 45 45 45 44 44 44 44 44 44
31 30 31 31 32 32 33 34 36 37 38 38 38 38 39 39 40 40 40 40 41 42 42 42 42 43 44 45 45 45 45 45 45 45 44 44 44 43 43 43 43 43 43
29 30 30 29 29 30 30 31 33 35 36 37 38 38 39 39 39 39 40 40 40 40 41 42 42 43 43 44 44 44 44 44 44 44 44 43 43 43 42 42 42 43 43
28 28 29 29 29 29 29 30 31 33 35 36 37 37 37 37 38 38 38 39 39 39 39 39 40 40 42 42 43 43 43 43 43 43 43 43 42 42 42 42 42 43 43
27 27 28 29 29 29 29 30 30 31 32 34 36 36 36 36 37 37 37 37 37 37 37 37 37 37 38 39 40 41 41 42 42 42 42 42 42 42 42 42 43 43 43
26 26 27 28 29 29 30 30 30 31 31 32 33 34 35 35 35 35 35 36 36 36 36 36 36 37 37 37 38 38 40 41 41 42 42 42 42 43 43 43 42 43 43
25 25 26 27 28 28 29 30 30 30 31 31 32 32 33 33 34 34 34 34 34 34 35 35 36 36 37 38 38 38 39 39 40 41 41 41 41 41 42 42 42 43 43
25 25 26 26 26 27 28 29 29 30 31 31 31 31 32 33 33 33 33 33 33 34 34 35 35 36 37 37 38 38 39 39 39 39 39 40 40 41 41 42 43 44 44
26 26 26 26 26 27 27 28 29 30 31 31 31 31 31 32 32 33 34 34 34 34 35 35 35 36 36 36 37 38 38 38 38 38 38 39 40 40 41 42 43 43 43
27 27 27 27 27 27 27 28 28 29 30 31 31 32 32 32 33 34 34 35 35 35 35 35 35 36 36 36 36 37 37 38 38 38 38 39 40 40 41 41 41 41 42
27 27 27 27 28 29 29 29 29 29 30 31 31 31 32 33 33 34 34 34 34 35 35 35 36 36 37 36 36 36 36 36 37 37 38 39 39 40 40 40 40 40 40
26 27 27 27 28 29 29 30 30 30 30 30 31 31 32 32 33 34 34 34 34 35 35 35 36 36 36 36 36 36 35 35 36 36 37 38 39 39 39 39 40 40 41
26 26 27 27 28 28 29 29 30 31 31 31 31 32 32 32 33 33 34 34 34 35 35 36 36 36 36 36 36 36 35 35 36 36 37 38 39 39 39 40 40 41 41
27 27 28 28 28 28 28 29 29 30 31 31 32 32 33 33 33 33 33 34 35 35 36 36 36 36 36 36 36 36 36 36 36 37 37 38 38 39 39 40 40 40 41
27 27 28 28 29 29 29 29 29 30 31 31 32 32 33 33 33 33 33 34 35 35 36 36 36 36 36 36 36 36 36 36 37 37 38 38 38 38 38 39 39 40 40
27 28 28 28 29 29 29 29 30 30 30 31 32 32 32 33 33 33 34 34 34 35 35 35 35 35 35 35 35 35 36 37 37 37 37 37 37 38 37 37 37 38 38
27 27 28 28 29 29 30 30 30 31 31 31 31 31 32 32 33 33 34 34 34 34 34 34 34 34 35 35 35 35 36 36 37 37 37 37 37 37 36 36 36 36 36
25 26 27 27 28 29 29 30 30 30 31 31 31 31 31 31 31 32 32 33 32 32 32 32 32 33 34 34 35 35 35 35 36 36 36 36 36 36 36 36 36 36 36
25 25 26 26 27 27 28 28 29 29 30 30 30 30 30 29 30 30 30 31 31 30 30 30 30 31 32 32 33 34 34 34 34 34 35 35 35 35 35 35 35 35 35
Wind_Direction
255 253 253 251 250 249 247 246 246 246 245 246 246 247 248 249 250 251 251 252 252 253 254 255 256 257 257 259 260 260 261 262 263 264 265 265 267 267 266 267 269 268 269
254 252 252 249 249 248 247 246 245 246 245 245 246 247 248 249 249 250 250 251 252 253 254 255 256 257 257 259 260 261 262 263 264 264 265 265 266 267 267 269 269 269 269
253 252 252 249 248 246 246 245 244 244 245 246 246 247 247 248 249 249 249 250 252 253 254 255 256 256 258 259 260 261 262 263 264 265 265 266 267 267 267 268 269 269 269
253 253 252 250 249 246 245 244 244 245 245 245 246 247 247 247 249 249 249 250 251 252 253 254 255 255 257 258 259 260 261 263 264 266 267 267 268 268 268 269 269 270 270
254 253 252 250 248 247 245 244 245 245 245 246 246 247 246 247 248 248 249 250 250 251 252 253 254 255 256 257 259 259 260 262 264 266 267 268 268 268 268 269 270 271 271
253 253 252 252 250 248 246 244 244 244 244 244 245 246 246 246 247 248 249 250 250 251 252 254 255 255 256 257 258 259 261 262 263 265 266 267 268 269 268 270 272 273 272
255 252 252 252 251 248 245 243 243 244 244 243 243 245 245 245 247 248 249 249 251 251 252 253 254 255 256 257 259 260 261 263 264 265 266 268 269 269 270 271 272 272 271
255 252 252 250 248 246 243 243 243 244 244 242 242 243 244 245 247 248 249 250 251 252 253 254 254 254 256 258 259 260 262 264 264 265 266 268 269 270 271 271 272 272 271
255 253 251 249 246 245 244 243 244 244 243 242 242 244 245 246 248 249 250 251 252 253 253 254 254 255 256 258 259 260 261 262 264 265 266 267 268 271 272 272 272 271 270
254 252 251 249 245 245 243 242 242 242 242 242 243 244 245 246 248 249 250 251 251 251 252 254 255 257 258 258 259 260 261 262 263 265 265 267 269 271 271 272 272 272 271
254 253 251 248 247 246 244 244 243 242 242 242 243 244 244 246 248 249 249 249 250 252 253 255 256 257 257 258 258 259 261 262 263 264 266 267 268 269 271 272 273 273 272
255 253 251 249 247 246 244 244 244 245 245 244 243 243 243 245 246 247 248 249 251 253 254 255 257 257 257 258 259 259 260 262 263 265 266 267 267 268 270 271 272 273 273
254 253 251 249 248 248 245 243 244 245 244 243 243 244 245 245 245 247 248 250 251 253 254 254 255 256 257 258 259 261 262 263 264 265 267 268 268 269 269 271 272 273 274
253 253 251 249 249 249 247 245 245 245 244 243 243 244 244 244 246 247 249 250 251 252 253 254 256 257 258 259 261 262 264 265 265 266 267 268 268 269 270 271 272 273 274
252 253 251 250 248 248 247 246 245 245 245 245 245 245 244 245 245 247 250 252 253 254 255 256 258 258 259 260 261 262 264 265 266 267 267 268 269 270 271 272 273 274 274
253 254 252 250 249 249 248 247 247 247 247 247 246 246 246 246 247 250 251 253 254 256 258 259 259 261 262 262 263 264 264 265 266 267 268 269 270 271 273 273 274 274 274
254 254 252 251 251 250 249 248 248 249 249 249 248 248 249 249 250 251 252 253 255 257 258 260 260 262 263 264 265 264 265 266 267 268 269 271 272 273 274 274 274 274 273
255 253 252 252 252 251 251 250 250 250 249 249 250 251 251 252 253 254 255 255 256 257 259 260 262 262 263 265 265 265 265 266 268 269 270 271 272 272 273 274 274 273 274
255 254 253 253 254 253 252 251 250 250 251 251 252 253 253 253 254 255 256 256 257 258 259 260 262 263 264 265 266 266 267 268 269 271 272 272 273 273 274 274 274 274 275
257 255 254 255 255 253 253 252 252 252 252 252 252 253 255 255 256 256 256 257 258 259 260 261 263 264 265 266 267 267 268 269 270 272 273 273 273 273 273 274 274 275 276
256 255 255 254 254 255 255 254 253 253 253 253 253 253 254 254 255 256 256 258 259 260 262 263 264 264 265 266 266 267 268 269 271 273 274 274 274 274 274 275 275 276 277
256 256 255 254 254 254 255 255 255 254 254 254 254 255 255 255 256 256 258 260 261 262 263 264 264 264 264 264 265 267 269 270 271 273 274 275 275 275 275 276 276 277 278
257 257 256 255 254 254 254 254 255 255 255 255 256 256 256 257 257 258 260 261 262 263 264 264 263 263 263 264 265 267 270 271 273 274 276 276 276 275 276 276 277 278 278
259 258 257 256 255 255 255 255 256 256 256 256 256 258 259 259 259 260 261 262 263 263 264 263 263 263 264 265 266 268 270 272 273 275 276 276 275 275 276 277 277 278 278
261 260 259 258 257 256 256 256 257 257 257 257 257 258 259 260 260 261 262 262 262 262 263 263 263 264 265 267 268 269 271 272 273 274 275 276 276 276 277 277 277 278 279
262 261 261 260 259 258 258 258 258 257 257 258 257 257 257 258 260 261 261 261 261 262 263 263 264 266 267 268 269 271 272 273 274 274 275 276 276 277 277 277 278 278 278
Height
5600 5602 5604 5607 5609 5612 5616 5620 5624 5627 5631 5635 5638 5642 5645 5649 5652 5655 5657 5660 5662 5664 5667 5669 5672 5673 5676 5677 5679 5680 5682 5683 5684 5686 5686 5686 5686 5685 5685 5685 5684 5684 5684
5588 5590 5592 5594 5597 5600 5604 5607 5611 5615 5619 5622 5626 5629 5633 5636 5639 5642 5645 5647 5650 5653 5655 5657 5660 5662 5664 5665 5667 5668 5669 5670 5672 5673 5673 5673 5673 5673 5672 5672 5671 5671 5671
5575 5577 5579 5582 5585 5588 5591 5595 5598 5602 5606 5610 5613 5617 5620 5623 5626 5629 5632 5635 5637 5640 5643 5645 5648 5650 5652 5653 5655 5656 5657 5658 5659 5660 5660 5660 5661 5660 5660 5659 5659 5658 5657
5563 5565 5567 5570 5572 5575 5579 5582 5586 5590 5594 5597 5601 5604 5607 5610 5613 5616 5619 5622 5625 5628 5630 5633 5635 5637 5639 5641 5642 5643 5645 5646 5646 5647 5648 5648 5648 5647 5647 5647 5646 5645 5645
5553 5555 5556 5558 5561 5563 5566 5570 5574 5577 5581 5585 5588 5591 5595 5598 5601 5603 5606 5609 5612 5615 5618 5620 5622 5625 5626 5628 5630 5631 5632 5633 5634 5635 5635 5635 5635 5635 5635 5634 5633 5633 5632
5543 5544 5546 5548 5550 5552 5555 5558 5562 5565 5569 5573 5576 5579 5582 5586 5589 5591 5594 5597 5600 5603 5605 5607 5610 5612 5614 5616 5617 5619 5620 5621 5622 5622 5623 5623 5623 5622 5622 5621 5620 5620 5620
5533 5534 5536 5538 5539 5541 5543 5547 5550 5554 5557 5561 5565 5568 5571 5574 5577 5580 5582 5585 5588 5590 5593 5595 5597 5599 5601 5603 5605 5606 5607 5608 5609 5610 5610 5610 5610 5610 5609 5609 5607 5606 5606
5524 5525 5526 5527 5529 5531 5533 5536 5540 5543 5546 5550 5553 5557 5560 5563 5566 5568 5571 5573 5576 5578 5581 5583 5585 5587 5589 5590 5592 5594 5595 5596 5596 5597 5597 5597 5596 5595 5595 5595 5594 5593 5593
5515 5516 5517 5518 5520 5522 5524 5526 5530 5532 5536 5539 5543 5546 5549 5552 5554 5557 5559 5562 5564 5567 5569 5571 5573 5575 5577 5578 5580 5581 5583 5583 5583 5583 5584 5584 5583 5582 5581 5581 5580 5580 5580
5506 5507 5508 5509 5511 5513 5515 5517 5520 5522 5526 5529 5532 5535 5538 5540 5543 5545 5548 5550 5553 5555 5557 5559 5561 5562 5564 5565 5566 5568 5569 5570 5570 5571 5571 5571 5570 5569 5569 5568 5567 5567 5567
5497 5498 5499 5500 5502 5504 5507 5509 5511 5513 5516 5519 5522 5525 5527 5530 5532 5534 5536 5539 5541 5544 5546 5548 5549 5550 5551 5552 5553 5555 5556 5557 5557 5558 5558 5558 5558 5557 5556 5556 5555 5554 5554
5489 5490 5491 5492 5494 5496 5498 5500 5502 5504 5507 5509 5512 5514 5517 5519 5521 5524 5526 5528 5530 5533 5535 5536 5537 5538 5539 5540 5541 5542 5543 5544 5545 5545 5546 5546 5546 5545 5544 5544 5543 5542 5541
5481 5482 5483 5485 5486 5488 5490 5491 5493 5495 5498 5500 5502 5505 5507 5509 5511 5514 5516 5518 5520 5522 5523 5525 5526 5527 5528 5529 5529 5530 5531 5531 5532 5533 5533 5533 5533 5533 5532 5531 5530 5529 5528
5474 5475 5476 5477 5478 5480 5481 5483 5485 5487 5489 5491 5493 5495 5498 5500 5502 5504 5506 5508 5510 5511 5513 5514 5515 5516 5517 5518 5519 5519 5519 5519 5519 5520 5520 5521 5520 5520 5519 5519 5518 5517 5516
5466 5467 5468 5469 5471 5472 5473 5475 5477 5479 5480 5482 5484 5486 5488 5490 5492 5494 5496 5498 5499 5501 5502 5503 5504 5505 5506 5507 5507 5507 5508 5508 5508 5508 5508 5508 5508 5507 5507 5506 5505 5504 5503
5459 5460 5460 5461 5463 5464 5465 5467 5468 5470 5472 5473 5475 5477 5479 5481 5483 5485 5486 5488 5489 5490 5492 5493 5494 5495 5495 5496 5496 5496 5496 5496 5496 5496 5496 5496 5495 5495 5494 5493 5492 5491 5490
5450 5451 5452 5453 5455 5456 5457 5459 5460 5462 5463 5464 5466 5468 5470 5472 5473 5475 5476 5478 5479 5480 5481 5482 5483 5484 5484 5484 5484 5485 5485 5485 5484 5484 5484 5484 5483 5482 5482 5481 5479 5478 5477
5441 5443 5444 5445 5446 5448 5449 5450 5452 5453 5454 5456 5457 5459 5460 5462 5463 5465 5466 5467 5468 5469 5470 5471 5472 5473 5473 5473 5473 5473 5473 5473 5473 5473 5472 5472 5471 5470 5469 5469 5467 5466 5465
5433 5434 5435 5436 5437 5439 5440 5441 5442 5444 5445 5447 5448 5449 5450 5452 5453 5454 5455 5457 5458 5459 5459 5460 5461 5461 5462 5462 5462 5462 5462 5462 5461 5461 5460 5460 5459 5458 5457 5456 5455 5454 5453
5424 5426 5427 5428 5429 5430 5431 5432 5433 5435 5436 5437 5439 5440 5441 5442 5443 5444 5445 5446 5447 5448 5449 5449 5450 5450 5450 5451 5451 5451 5451 5451 5450 5450 5449 5448 5447 5446 5445 5444 5443 5442 5441
5416 5417 5418 5419 5420 5421 5422 5423 5424 5425 5426 5428 5429 5430 5431 5432 5433 5434 5435 5435 5436 5437 5437 5438 5438 5439 5439 5439 5439 5439 5439 5439 5439 5438 5437 5436 5435 5434 5433 5432 5431 5429 5428
5407 5408 5408 5409 5411 5412 5412 5413 5414 5415 5417 5418 5419 5419 5420 5421 5423 5424 5424 5425 5425 5425 5426 5426 5427 5427 5427 5428 5428 5428 5428 5428 5427 5426 5425 5424 5423 5422 5421 5419 5418 5417 5416
5397 5398 5399 5400 5401 5402 5403 5404 5405 5406 5407 5408 5408 5409 5410 5411 5412 5413 5413 5414 5414 5414 5414 5414 5415 5415 5416 5416 5416 5416 5416 5416 5415 5414 5413 5412 5411 5410 5409 5407 5406 5405 5404
5388 5389 5390 5390 5391 5392 5393 5394 5395 5396 5397 5398 5398 5399 5400 5401 5401 5402 5402 5403 5403 5403 5403 5403 5404 5404 5404 5405 5405 5405 5404 5404 5403 5402 5401 5400 5399 5398 5397 5396 5394 5393 5392
5379 5380 5380 5381 5382 5382 5383 5384 5385 5385 5386 5387 5388 5389 5390 5390 5391 5391 5392 5392 5393 5393 5393 5393 5393 5393 5393 5393 5393 5393 5392 5392 5391 5390 5389 5388 5387 5386 5385 5384 5383 5382 5380
5370 5371 5371 5371 5372 5372 5373 5374 5374 5375 5376 5377 5378 5379 5379 5380 5381 5381 5382 5382 5383 5383 5383 5383 5383 5383 5383 5383 5382 5382 5381 5380 5379 5378 5377 5377 5376 5375 5373 5372 5371 5370 5369